This is the latest recevied weather packets stored in our database for station/object WB5HZM-3. If no packets are shown the sender has not sent any weather packets the latest 1 day(s).
| Time | Temp. | Humidity | Pressure | Rain* | Wind** | Luminosity | Snow |
|---|---|---|---|---|---|---|---|
| 1777995186 | 25° C | 82% | 1010.3 hPa | 0 mm | 1.34 m/s, 142° | - | - |
| 1777994585 | 25° C | 83% | 1010.2 hPa | 0 mm | 0.45 m/s, 180° | - | - |
| 1777993999 | 24.44° C | 84% | 1010.3 hPa | 0 mm | 1.79 m/s, 247° | - | - |
| 1777993396 | 24.44° C | 84% | 1010.2 hPa | 0 mm | 0.89 m/s, 221° | - | - |
| 1777992797 | 24.44° C | 85% | 1010.2 hPa | 0 mm | 1.34 m/s, 192° | - | - |
| 1777992192 | 23.89° C | 85% | 1010.1 hPa | 0 mm | 2.24 m/s, 166° | - | - |
| 1777991588 | 23.89° C | 85% | 1010.2 hPa | 0 mm | 0.45 m/s, 201° | - | - |
| 1777990986 | 23.89° C | 85% | 1010.3 hPa | 0 mm | 0.89 m/s, 140° | - | - |
| 1777990402 | 23.33° C | 85% | 1010.1 hPa | 0 mm | 1.34 m/s, 215° | - | - |
| 1777989799 | 23.33° C | 85% | 1009.9 hPa | 0 mm | 1.34 m/s, 209° | - | - |
| 1777989193 | 22.78° C | 85% | 1009.7 hPa | 0 mm | 0.89 m/s, 135° | - | - |
| 1777988593 | 22.78° C | 85% | 1009.9 hPa | 0 mm | 0.89 m/s, 184° | - | - |
| 1777988008 | 22.22° C | 85% | 1010.1 hPa | 0 mm | 0.89 m/s, 180° | - | - |
| 1777987404 | 22.22° C | 85% | 1010.3 hPa | 0 mm | 0.89 m/s, 176° | - | - |
| 1777986803 | 21.67° C | 85% | 1010.4 hPa | 0 mm | 0.89 m/s, 90° | - | - |
| 1777986198 | 21.67° C | 86% | 1010.2 hPa | 0 mm | 0.45 m/s, 93° | - | - |
| 1777985595 | 21.67° C | 86% | 1010 hPa | 0 mm | 0.89 m/s, 91° | - | - |
| 1777984991 | 21.67° C | 85% | 1009.8 hPa | 0 mm | 0.89 m/s, 128° | - | - |
| 1777984392 | 21.11° C | 86% | 1009.4 hPa | 0 mm | 0.89 m/s, 140° | - | - |
| 1777983808 | 21.11° C | 85% | 1009.4 hPa | 0 mm | 0.45 m/s, 126° | - | - |
| 1777983203 | 21.11° C | 85% | 1009.8 hPa | 0 mm | 0.89 m/s, 125° | - | - |
| 1777982604 | 21.11° C | 85% | 1009.8 hPa | 0 mm | 0.45 m/s, 138° | - | - |
| 1777982000 | 21.11° C | 86% | 1009.5 hPa | 0 mm | 0.45 m/s, 125° | - | - |
| 1777981395 | 21.11° C | 86% | 1009.7 hPa | 0 mm | 0.45 m/s, 135° | - | - |
| 1777980795 | 20.56° C | 86% | 1009.7 hPa | 0 mm | 0.45 m/s, 142° | - | - |
* Rain latest hour (hover to see other rain measurements)
** Current wind speed in m/s (hover to see current wind gust speed)